Melbourne Airport, Australia

6:56 PM AEST on June 26, 2017 (GMT +1000)
Melbourne International

Weather History for YMML - January, 2013

Change the Weather History Date:

Thursday, January 17, 2013

  Actual Average Record
Temperature  
Mean Temperature 79 °F -  
Max Temperature 104 °F 77 °F 111 °F (2014)
Min Temperature 54 °F 56 °F 50 °F (2000)
Cooling Degree Days 14    
Growing Degree Days 29 (Base 50)    
Moisture  
Dew Point 36 °F    
Average Humidity 36    
Maximum Humidity 88    
Minimum Humidity 4    
Precipitation  
Precipitation 0.00 in 0.06 in - ()
Sea Level Pressure  
Sea Level Pressure 29.68 in    
Wind  
Wind Speed 9 mph ()    
Max Wind Speed 20 mph    
Max Gust Speed 31 mph    
Visibility 19.0 miles    
Events      
Averages and records for this station are not official NWS values.
T = Trace of Precipitation, MM = Missing Value Source: Averaged Metar Reports

Daily Weather History Graph

Daily Weather History Graph

Search for Another Location

Airport or City:

Trip Planner

Search our weather history database for the weather conditions in past years. The results will help you decide how hot, cold, wet, or windy it might be!

Date:

Astronomy

Jan. 17, 2013 Rise Set
Actual Time 6:17 AM AEDT 8:43 PM AEDT
Civil Twilight 5:47 AM AEDT 9:13 PM AEDT
Nautical Twilight 5:10 AM AEDT 9:50 PM AEDT
Astronomical Twilight 4:29 AM AEDT 10:31 PM AEDT
Moon 12:03 PM AEDT (1/17) 11:43 PM AEDT (1/17)
Length of Visible Light 15h 25m
Length of Day
14h 25m
Waxing Crescent, 31% of the Moon is Illuminated
Jan 17
Waxing Crescent
Jan 19
First Quarter
Jan 27
Full
Feb 4
Last Quarter
Feb 10
New

Hourly Weather History & Observations

Time (AEDT) Temp. Dew Point Humidity Pressure Visibility Wind Dir Wind Speed Gust Speed Precip Events Conditions
12:00 AM 60 °F 54 °F 73% 29.92 in 19 mi WSW 4.6 mph - -   Partly Cloudy
12:00 AM 60.8 °F 53.6 °F 77% 29.92 in - WSW 4.6 mph - N/A   Clear
12:30 AM 59.0 °F 53.6 °F 82% 29.92 in - West 8.1 mph - N/A   Clear
1:00 AM 59.0 °F 53.6 °F 82% 29.89 in - West 6.9 mph - N/A   Clear
1:30 AM 57.2 °F 53.6 °F 88% 29.89 in - West 6.9 mph - N/A   Clear
2:00 AM 58 °F 53 °F 80% 29.87 in - West 8.1 mph - -  
2:00 AM 57.2 °F 53.6 °F 88% 29.86 in - West 8.1 mph - N/A   Clear
2:30 AM 57.2 °F 53.6 °F 88% 29.86 in - WNW 6.9 mph - N/A   Clear
3:00 AM 57 °F 53 °F 81% 29.85 in 19 mi NNW 5.8 mph - -   Partly Cloudy
3:00 AM 57.2 °F 53.6 °F 88% 29.86 in - NNW 5.8 mph - N/A   Clear
3:30 AM 57.2 °F 53.6 °F 88% 29.83 in - NNW 4.6 mph - N/A   Clear
4:00 AM 55.4 °F 51.8 °F 88% 29.83 in - North 5.8 mph - N/A   Clear
4:30 AM 55.4 °F 51.8 °F 88% 29.83 in - North 5.8 mph - N/A   Clear
5:00 AM 55 °F 52 °F 84% 29.81 in - North 5.8 mph - -  
5:00 AM 55.4 °F 51.8 °F 88% 29.80 in - North 5.8 mph - N/A   Clear
5:30 AM 53.6 °F 50.0 °F 88% 29.80 in - North 10.4 mph - N/A   Clear
6:00 AM 56 °F 49 °F 72% 29.80 in 22 mi North 12.7 mph - -   Partly Cloudy
6:00 AM 55.4 °F 50.0 °F 82% 29.80 in - North 12.7 mph - N/A   Clear
6:30 AM 55.4 °F 48.2 °F 77% 29.80 in - North 8.1 mph - N/A   Clear
7:00 AM 57.2 °F 50.0 °F 77% 29.80 in - North 6.9 mph - N/A   Clear
7:30 AM 59.0 °F 50.0 °F 72% 29.77 in - NNE 5.8 mph - N/A   Clear
8:00 AM 62 °F 52 °F 61% 29.77 in - North 6.9 mph - -  
8:00 AM 62.6 °F 51.8 °F 68% 29.77 in - North 6.9 mph - N/A   Clear
8:30 AM 66.2 °F 53.6 °F 64% 29.77 in - NE 4.6 mph - N/A   Clear
9:00 AM 73.4 °F 53.6 °F 50% 29.77 in - SE 2.3 mph - N/A   Clear
9:30 AM 77.0 °F 50.0 °F 39% 29.74 in - NNE 5.8 mph - N/A   Clear
10:00 AM 84.2 °F 46.4 °F 27% 29.74 in - ENE 5.8 mph - N/A   Clear
10:30 AM 91.4 °F 33.8 °F 13% 29.71 in - North 18.4 mph - N/A   Clear
11:00 AM 92 °F 32 °F 6% 29.69 in - North 17.3 mph - -  
11:00 AM 93.2 °F 32.0 °F 11% 29.68 in - North 17.3 mph - N/A   Clear
11:30 AM 98.6 °F 21.2 °F 6% 29.68 in - West 17.3 mph - N/A   Clear
12:00 PM 98 °F 22 °F 4% 29.68 in 22 mi NW 18.4 mph - -   Partly Cloudy
12:00 PM 98.6 °F 23.0 °F 7% 29.68 in - NW 18.4 mph - N/A   Clear
12:30 PM 98.6 °F 24.8 °F 7% 29.65 in - North 16.1 mph - N/A   Clear
1:00 PM 98.6 °F 26.6 °F 8% 29.65 in - NNW 13.8 mph - N/A   Clear
1:30 PM 104.0 °F 24.8 °F 6% 29.65 in - NW 13.8 mph - N/A   Clear
2:00 PM 98 °F 26 °F 4% 29.64 in - NNW 17.3 mph - -  
2:00 PM 98.6 °F 26.6 °F 8% 29.65 in - NNW 17.3 mph - N/A   Clear
2:21 PM 102.2 °F 26.6 °F 7% 29.62 in - NNW 17.3 mph 28.8 mph N/A   Clear
2:35 PM 102.2 °F 28.4 °F 7% 29.62 in - North 19.6 mph 31.1 mph N/A   Clear
3:00 PM 103 °F 23 °F 4% 29.62 in 22 mi WNW 17.3 mph - -   Partly Cloudy
3:00 PM 102.2 °F 23.0 °F 6% 29.62 in - WNW 17.3 mph 28.8 mph N/A   Clear
3:33 PM 100.4 °F 24.8 °F 7% 29.59 in - NNW 17.3 mph 29.9 mph N/A   Clear
4:00 PM 104.0 °F 24.8 °F 6% 29.59 in - West 11.5 mph - N/A   Clear
4:30 PM 102.2 °F 21.2 °F 6% 29.59 in - West 19.6 mph - N/A   Clear
5:00 PM 104 °F 19 °F 4% 29.57 in - WNW 17.3 mph - -  
5:00 PM 104.0 °F 19.4 °F 5% 29.56 in - WNW 17.3 mph 29.9 mph N/A   Clear
5:30 PM 104.0 °F 21.2 °F 5% 29.56 in - NNW 18.4 mph - N/A   Clear
6:00 PM 104 °F 22 °F 4% 29.54 in 25 mi NNW 11.5 mph - -   Partly Cloudy
6:00 PM 104.0 °F 21.2 °F 5% 29.53 in - NNW 11.5 mph - N/A   Clear
6:30 PM 104.0 °F 19.4 °F 5% 29.53 in - WNW 17.3 mph - N/A   Clear
7:00 PM 104.0 °F 19.4 °F 5% 29.50 in - NW 12.7 mph - N/A   Clear
7:30 PM 104.0 °F 19.4 °F 5% 29.50 in - NNW 15.0 mph - N/A   Clear
8:00 PM 102 °F 19 °F 4% 29.50 in - NW 10.4 mph - -  
8:00 PM 102.2 °F 19.4 °F 5% 29.50 in - NW 10.4 mph - N/A   Clear
8:30 PM 100.4 °F 23.0 °F 6% 29.50 in - NNW 9.2 mph - N/A   Clear
9:00 PM 96 °F 24 °F 4% 29.50 in 25 mi North 10.4 mph - -   Partly Cloudy
9:00 PM 95.0 °F 24.8 °F 8% 29.50 in - North 10.4 mph - N/A   Clear
9:30 PM 91.4 °F 26.6 °F 10% 29.50 in - North 13.8 mph - N/A   Clear
10:00 PM 89.6 °F 26.6 °F 10% 29.50 in - North 16.1 mph - N/A   Clear
10:30 PM 91.4 °F 24.8 °F 9% 29.50 in - North 17.3 mph - N/A   Clear
11:00 PM 87 °F 28 °F 6% 29.51 in - WSW 13.8 mph - -  
11:00 PM 86.0 °F 28.4 °F 12% 29.50 in - WSW 13.8 mph - N/A   Clear
11:30 PM 80.6 °F 46.4 °F 30% 29.50 in - West 8.1 mph - N/A   Clear